Year,Month,Day,Hour,Minute,Value (Times are PST for temperature in C)
2020,06,02,00,00,11.40
2020,06,02,00,01,11.40
2020,06,02,00,02,11.50
2020,06,02,00,03,11.50
2020,06,02,00,04,11.50
2020,06,02,00,05,11.60
2020,06,02,00,06,11.60
2020,06,02,00,07,11.60
2020,06,02,00,08,11.60
2020,06,02,00,09,11.60
2020,06,02,00,10,11.70
2020,06,02,00,11,11.70
2020,06,02,00,12,11.70
2020,06,02,00,13,11.70
2020,06,02,00,14,11.70
2020,06,02,00,15,11.80
2020,06,02,00,16,11.80
2020,06,02,00,17,11.70
2020,06,02,00,18,11.70
2020,06,02,00,19,11.70
2020,06,02,00,20,11.70
2020,06,02,00,21,11.70
2020,06,02,00,22,11.70
2020,06,02,00,23,11.70
2020,06,02,00,24,11.70
2020,06,02,00,25,11.70
2020,06,02,00,26,11.70
2020,06,02,00,27,11.80
2020,06,02,00,28,11.80
2020,06,02,00,29,11.80
2020,06,02,00,30,11.80
2020,06,02,00,31,11.80
2020,06,02,00,32,11.80
2020,06,02,00,33,11.80
2020,06,02,00,34,11.80
2020,06,02,00,35,11.90
2020,06,02,00,36,11.90
2020,06,02,00,37,12.00
2020,06,02,00,38,12.00
2020,06,02,00,39,12.10
2020,06,02,00,40,12.10
2020,06,02,00,41,12.10
2020,06,02,00,42,12.10
2020,06,02,00,43,12.20
2020,06,02,00,44,12.20
2020,06,02,00,45,12.20
2020,06,02,00,46,12.20
2020,06,02,00,47,12.20
2020,06,02,00,48,12.20
2020,06,02,00,49,12.20
2020,06,02,00,50,12.20
2020,06,02,00,51,12.20
2020,06,02,00,52,12.20
2020,06,02,00,53,12.20
2020,06,02,00,54,12.10
2020,06,02,00,55,12.10
2020,06,02,00,56,12.10
2020,06,02,00,57,12.10
2020,06,02,00,58,12.10
2020,06,02,00,59,12.10
2020,06,02,01,00,12.10
2020,06,02,01,01,12.00
2020,06,02,01,02,12.00
2020,06,02,01,03,12.00
2020,06,02,01,04,12.00
2020,06,02,01,05,12.00
2020,06,02,01,06,12.00
2020,06,02,01,07,12.00
2020,06,02,01,08,11.90
2020,06,02,01,09,11.90
2020,06,02,01,10,11.90
2020,06,02,01,11,11.90
2020,06,02,01,12,11.90
2020,06,02,01,13,11.90
2020,06,02,01,14,11.90
2020,06,02,01,15,11.90
2020,06,02,01,16,11.90
2020,06,02,01,17,11.90
2020,06,02,01,18,11.90
2020,06,02,01,19,11.90
2020,06,02,01,20,11.80
2020,06,02,01,21,11.80
2020,06,02,01,22,11.80
2020,06,02,01,23,11.80
2020,06,02,01,24,11.80
2020,06,02,01,25,11.70
2020,06,02,01,26,11.70
2020,06,02,01,27,11.70
2020,06,02,01,28,11.80
2020,06,02,01,29,11.80
2020,06,02,01,30,11.80
2020,06,02,01,31,11.80
2020,06,02,01,32,11.80
2020,06,02,01,33,11.90
2020,06,02,01,34,11.90
2020,06,02,01,35,11.90
2020,06,02,01,36,12.00
2020,06,02,01,37,12.00
2020,06,02,01,38,12.00
2020,06,02,01,39,12.10
2020,06,02,01,40,12.10
2020,06,02,01,41,12.10
2020,06,02,01,42,12.10
2020,06,02,01,43,12.10
2020,06,02,01,44,12.10
2020,06,02,01,45,12.10
2020,06,02,01,46,12.10
2020,06,02,01,47,12.10
2020,06,02,01,48,12.10
2020,06,02,01,49,12.10
2020,06,02,01,50,12.10
2020,06,02,01,51,12.10
2020,06,02,01,52,12.10
2020,06,02,01,53,12.10
2020,06,02,01,54,12.10
2020,06,02,01,55,12.10
2020,06,02,01,56,12.10
2020,06,02,01,57,12.10
2020,06,02,01,58,12.20
2020,06,02,01,59,12.20
2020,06,02,02,00,12.20
2020,06,02,02,01,12.20
2020,06,02,02,02,12.20
2020,06,02,02,03,12.20
2020,06,02,02,04,12.20
2020,06,02,02,05,12.20
2020,06,02,02,06,12.20
2020,06,02,02,07,12.20
2020,06,02,02,08,12.20
2020,06,02,02,09,12.20
2020,06,02,02,10,12.30
2020,06,02,02,11,12.30
2020,06,02,02,12,12.40
2020,06,02,02,13,12.40
2020,06,02,02,14,12.40
2020,06,02,02,15,12.50
2020,06,02,02,16,12.50
2020,06,02,02,17,12.50
2020,06,02,02,18,12.50
2020,06,02,02,19,12.50
2020,06,02,02,20,12.50
2020,06,02,02,21,12.50
2020,06,02,02,22,12.40
2020,06,02,02,23,12.40
2020,06,02,02,24,12.40
2020,06,02,02,25,12.30
2020,06,02,02,26,12.30
2020,06,02,02,27,12.30
2020,06,02,02,28,12.30
2020,06,02,02,29,12.30
2020,06,02,02,30,12.20
2020,06,02,02,31,12.20
2020,06,02,02,32,12.20
2020,06,02,02,33,12.20
2020,06,02,02,34,12.10
2020,06,02,02,35,12.10
2020,06,02,02,36,12.10
2020,06,02,02,37,12.00
2020,06,02,02,38,12.00
2020,06,02,02,39,11.90
2020,06,02,02,40,11.90
2020,06,02,02,41,11.80
2020,06,02,02,42,11.80
2020,06,02,02,43,11.80
2020,06,02,02,44,11.70
2020,06,02,02,45,11.70
2020,06,02,02,46,11.60
2020,06,02,02,47,11.60
2020,06,02,02,48,11.60
2020,06,02,02,49,11.60
2020,06,02,02,50,11.50
2020,06,02,02,51,11.50
2020,06,02,02,52,11.50
2020,06,02,02,53,11.50
2020,06,02,02,54,11.50
2020,06,02,02,55,11.40
2020,06,02,02,56,11.40
2020,06,02,02,57,11.40
2020,06,02,02,58,11.40
2020,06,02,02,59,11.40
2020,06,02,03,00,11.40
2020,06,02,03,01,11.40
2020,06,02,03,02,11.40
2020,06,02,03,03,11.40
2020,06,02,03,04,11.40
2020,06,02,03,05,11.40
2020,06,02,03,06,11.40
2020,06,02,03,07,11.50
2020,06,02,03,08,11.50
2020,06,02,03,09,11.60
2020,06,02,03,10,11.60
2020,06,02,03,11,11.60
2020,06,02,03,12,11.60
2020,06,02,03,13,11.60
2020,06,02,03,14,11.60
2020,06,02,03,15,11.60
2020,06,02,03,16,11.60
2020,06,02,03,17,11.60
2020,06,02,03,18,11.60
2020,06,02,03,19,11.60
2020,06,02,03,20,11.60
2020,06,02,03,21,11.60
2020,06,02,03,22,11.50
2020,06,02,03,23,11.60
2020,06,02,03,24,11.60
2020,06,02,03,25,11.60
2020,06,02,03,26,11.60
2020,06,02,03,27,11.60
2020,06,02,03,28,11.60
2020,06,02,03,29,11.60
2020,06,02,03,30,11.60
2020,06,02,03,31,11.60
2020,06,02,03,32,11.60
2020,06,02,03,33,11.60
2020,06,02,03,34,11.60
2020,06,02,03,35,11.60
2020,06,02,03,36,11.60
2020,06,02,03,37,11.60
2020,06,02,03,38,11.60
2020,06,02,03,39,11.60
2020,06,02,03,40,11.60
2020,06,02,03,41,11.60
2020,06,02,03,42,11.60
2020,06,02,03,43,11.60
2020,06,02,03,44,11.60
2020,06,02,03,45,11.60
2020,06,02,03,46,11.60
2020,06,02,03,47,11.60
2020,06,02,03,48,11.60
2020,06,02,03,49,11.50
2020,06,02,03,50,11.50
2020,06,02,03,51,11.40
2020,06,02,03,52,11.40
2020,06,02,03,53,11.40
2020,06,02,03,54,11.30
2020,06,02,03,55,11.30
2020,06,02,03,56,11.20
2020,06,02,03,57,11.20
2020,06,02,03,58,11.10
2020,06,02,03,59,11.10
2020,06,02,04,00,11.00
2020,06,02,04,01,11.00
2020,06,02,04,02,10.90
2020,06,02,04,03,10.90
2020,06,02,04,04,10.80
2020,06,02,04,05,10.80
2020,06,02,04,06,10.80
2020,06,02,04,07,10.80
2020,06,02,04,08,10.80
2020,06,02,04,09,10.70
2020,06,02,04,10,10.70
2020,06,02,04,11,10.70
2020,06,02,04,12,10.60
2020,06,02,04,13,10.60
2020,06,02,04,14,10.50
2020,06,02,04,15,10.40
2020,06,02,04,16,10.40
2020,06,02,04,17,10.40
2020,06,02,04,18,10.30
2020,06,02,04,19,10.30
2020,06,02,04,20,10.20
2020,06,02,04,21,10.20
2020,06,02,04,22,10.10
2020,06,02,04,23,10.10
2020,06,02,04,24,10.10
2020,06,02,04,25,10.00
2020,06,02,04,26,10.00
2020,06,02,04,27,9.90
2020,06,02,04,28,9.90
2020,06,02,04,29,9.80
2020,06,02,04,30,9.80
2020,06,02,04,31,9.80
2020,06,02,04,32,9.80
2020,06,02,04,33,9.70
2020,06,02,04,34,9.70
2020,06,02,04,35,9.70
2020,06,02,04,36,9.60
2020,06,02,04,37,9.60
2020,06,02,04,38,9.50
2020,06,02,04,39,9.50
2020,06,02,04,40,9.40
2020,06,02,04,41,9.40
2020,06,02,04,42,9.40
2020,06,02,04,43,9.30
2020,06,02,04,44,9.30
2020,06,02,04,45,9.30
2020,06,02,04,46,9.20
2020,06,02,04,47,9.20
2020,06,02,04,48,9.20
2020,06,02,04,49,9.10
2020,06,02,04,50,9.10
2020,06,02,04,51,9.00
2020,06,02,04,52,9.00
2020,06,02,04,53,9.00
2020,06,02,04,54,8.90
2020,06,02,04,55,8.90
2020,06,02,04,56,8.90
2020,06,02,04,57,8.80
2020,06,02,04,58,8.80
2020,06,02,04,59,8.80
2020,06,02,05,00,8.80
2020,06,02,05,01,8.80
2020,06,02,05,02,8.70
2020,06,02,05,03,8.70
2020,06,02,05,04,8.70
2020,06,02,05,05,8.70
2020,06,02,05,06,8.70
2020,06,02,05,07,8.70
2020,06,02,05,08,8.70
2020,06,02,05,09,8.60
2020,06,02,05,10,8.60
2020,06,02,05,11,8.60
2020,06,02,05,12,8.60
2020,06,02,05,13,8.60
2020,06,02,05,14,8.60
2020,06,02,05,15,8.60
2020,06,02,05,16,8.60
2020,06,02,05,17,8.60
2020,06,02,05,18,8.60
2020,06,02,05,19,8.60
2020,06,02,05,20,8.60
2020,06,02,05,21,8.50
2020,06,02,05,22,8.50
2020,06,02,05,23,8.50
2020,06,02,05,24,8.50
2020,06,02,05,25,8.50
2020,06,02,05,26,8.50
2020,06,02,05,27,8.40
2020,06,02,05,28,8.40
2020,06,02,05,29,8.40
2020,06,02,05,30,8.40
2020,06,02,05,31,8.40
2020,06,02,05,32,8.40
2020,06,02,05,33,8.40
2020,06,02,05,34,8.40
2020,06,02,05,35,8.40
2020,06,02,05,36,8.30
2020,06,02,05,37,8.30
2020,06,02,05,38,8.30
2020,06,02,05,39,8.30
2020,06,02,05,40,8.30
2020,06,02,05,41,8.30
2020,06,02,05,42,8.30
2020,06,02,05,43,8.30
2020,06,02,05,44,8.30
2020,06,02,05,45,8.30
2020,06,02,05,46,8.30
2020,06,02,05,47,8.40
2020,06,02,05,48,8.40
2020,06,02,05,49,8.40
2020,06,02,05,50,8.40
2020,06,02,05,51,8.30
2020,06,02,05,52,8.30
2020,06,02,05,53,8.30
2020,06,02,05,54,8.30
2020,06,02,05,55,8.30
2020,06,02,05,56,8.30
2020,06,02,05,57,8.30
2020,06,02,05,58,8.30
2020,06,02,05,59,8.30
2020,06,02,06,00,8.30
2020,06,02,06,01,8.30
2020,06,02,06,02,8.30
2020,06,02,06,03,8.30
2020,06,02,06,04,8.30
2020,06,02,06,05,8.30
2020,06,02,06,06,8.30
2020,06,02,06,07,8.30
2020,06,02,06,08,8.30
2020,06,02,06,09,8.30
2020,06,02,06,10,8.30
2020,06,02,06,11,8.30
2020,06,02,06,12,8.30
2020,06,02,06,13,8.30
2020,06,02,06,14,8.30
2020,06,02,06,15,8.30
2020,06,02,06,16,8.40
2020,06,02,06,17,8.40
2020,06,02,06,18,8.40
2020,06,02,06,19,8.40
2020,06,02,06,20,8.50
2020,06,02,06,21,8.50
2020,06,02,06,22,8.50
2020,06,02,06,23,8.60
2020,06,02,06,24,8.60
2020,06,02,06,25,8.70
2020,06,02,06,26,8.80
2020,06,02,06,27,8.80
2020,06,02,06,28,8.90
2020,06,02,06,29,8.90
2020,06,02,06,30,9.00
2020,06,02,06,31,9.00
2020,06,02,06,32,9.00
2020,06,02,06,33,9.10
2020,06,02,06,34,9.10
2020,06,02,06,35,9.10
2020,06,02,06,36,9.10
2020,06,02,06,37,9.10
2020,06,02,06,38,9.20
2020,06,02,06,39,9.20
2020,06,02,06,40,9.20
2020,06,02,06,41,9.20
2020,06,02,06,42,9.30
2020,06,02,06,43,9.30
2020,06,02,06,44,9.30
2020,06,02,06,45,9.30
2020,06,02,06,46,9.30
2020,06,02,06,47,9.40
2020,06,02,06,48,9.40
2020,06,02,06,49,9.40
2020,06,02,06,50,9.40
2020,06,02,06,51,9.40
2020,06,02,06,52,9.40
2020,06,02,06,53,9.40
2020,06,02,06,54,9.40
2020,06,02,06,55,9.40
2020,06,02,06,56,9.40
2020,06,02,06,57,9.40
2020,06,02,06,58,9.40
2020,06,02,06,59,9.40
2020,06,02,07,00,9.30
2020,06,02,07,01,9.30
2020,06,02,07,02,9.30
2020,06,02,07,03,9.30
2020,06,02,07,04,9.30
2020,06,02,07,05,9.30
2020,06,02,07,06,9.30
2020,06,02,07,07,9.20
2020,06,02,07,08,9.20
2020,06,02,07,09,9.20
2020,06,02,07,10,9.20
2020,06,02,07,11,9.20
2020,06,02,07,12,9.20
2020,06,02,07,13,9.20
2020,06,02,07,14,9.20
2020,06,02,07,15,9.10
2020,06,02,07,16,9.10
2020,06,02,07,17,9.10
2020,06,02,07,18,9.10
2020,06,02,07,19,9.10
2020,06,02,07,20,9.10
2020,06,02,07,21,9.10
2020,06,02,07,22,9.10
2020,06,02,07,23,9.10
2020,06,02,07,24,9.10
2020,06,02,07,25,9.10
2020,06,02,07,26,9.10
2020,06,02,07,27,9.10
2020,06,02,07,28,9.10
2020,06,02,07,29,9.10
2020,06,02,07,30,9.10
2020,06,02,07,31,9.20
2020,06,02,07,32,9.20
2020,06,02,07,33,9.20
2020,06,02,07,34,9.30
2020,06,02,07,35,9.30
2020,06,02,07,36,9.30
2020,06,02,07,37,9.40
2020,06,02,07,38,9.40
2020,06,02,07,39,9.40
2020,06,02,07,40,9.40
2020,06,02,07,41,9.40
2020,06,02,07,42,9.50
2020,06,02,07,43,9.50
2020,06,02,07,44,9.60
2020,06,02,07,45,9.60
2020,06,02,07,46,9.60
2020,06,02,07,47,9.60
2020,06,02,07,48,9.60
2020,06,02,07,49,9.60
2020,06,02,07,50,9.60
2020,06,02,07,51,9.70
2020,06,02,07,52,9.70
2020,06,02,07,53,9.70
2020,06,02,07,54,9.80
2020,06,02,07,55,9.80
2020,06,02,07,56,9.80
2020,06,02,07,57,9.80
2020,06,02,07,58,9.80
2020,06,02,07,59,9.90
2020,06,02,08,00,9.90
2020,06,02,08,01,9.90
2020,06,02,08,02,9.90
2020,06,02,08,03,9.90
2020,06,02,08,04,9.90
2020,06,02,08,05,10.00
2020,06,02,08,06,10.00
2020,06,02,08,07,10.00
2020,06,02,08,08,10.10
2020,06,02,08,09,10.10
2020,06,02,08,10,10.10
2020,06,02,08,11,10.20
2020,06,02,08,12,10.20
2020,06,02,08,13,10.20
2020,06,02,08,14,10.20
2020,06,02,08,15,10.20
2020,06,02,08,16,10.20
2020,06,02,08,17,10.20
2020,06,02,08,18,10.30
2020,06,02,08,19,10.30
2020,06,02,08,20,10.30
2020,06,02,08,21,10.40
2020,06,02,08,22,10.60
2020,06,02,08,23,10.60
2020,06,02,08,24,10.70
2020,06,02,08,25,10.80
2020,06,02,08,26,10.80
2020,06,02,08,27,10.90
2020,06,02,08,28,10.90
2020,06,02,08,29,11.00
2020,06,02,08,30,11.00
2020,06,02,08,31,11.10
2020,06,02,08,32,11.10
2020,06,02,08,33,11.20
2020,06,02,08,34,11.20
2020,06,02,08,35,11.30
2020,06,02,08,36,11.30
2020,06,02,08,37,11.40
2020,06,02,08,38,11.40
2020,06,02,08,39,11.40
2020,06,02,08,40,11.40
2020,06,02,08,41,11.40
2020,06,02,08,42,11.50
2020,06,02,08,43,11.50
2020,06,02,08,44,11.60
2020,06,02,08,45,11.60
2020,06,02,08,46,11.60
2020,06,02,08,47,11.70
2020,06,02,08,48,11.70
2020,06,02,08,49,11.80
2020,06,02,08,50,11.80
2020,06,02,08,51,11.90
2020,06,02,08,52,12.00
2020,06,02,08,53,12.00
2020,06,02,08,54,12.10
2020,06,02,08,55,12.10
2020,06,02,08,56,12.10
2020,06,02,08,57,12.10
2020,06,02,08,58,12.10
2020,06,02,08,59,12.10
2020,06,02,09,00,12.10
2020,06,02,09,01,12.10
2020,06,02,09,02,12.10
2020,06,02,09,03,12.10
2020,06,02,09,04,12.10
2020,06,02,09,05,12.20
2020,06,02,09,06,12.20
2020,06,02,09,07,12.20
2020,06,02,09,08,12.20
2020,06,02,09,09,12.10
2020,06,02,09,10,12.10
2020,06,02,09,11,12.10
2020,06,02,09,12,12.10
2020,06,02,09,13,12.10
2020,06,02,09,14,12.10
2020,06,02,09,15,12.10
2020,06,02,09,16,12.10
2020,06,02,09,17,12.10
2020,06,02,09,18,12.10
2020,06,02,09,19,12.10
2020,06,02,09,20,12.10
2020,06,02,09,21,12.10
2020,06,02,09,22,12.10
2020,06,02,09,23,12.10
2020,06,02,09,24,12.10
2020,06,02,09,25,12.10
2020,06,02,09,26,12.10
2020,06,02,09,27,12.10
2020,06,02,09,28,12.10
2020,06,02,09,29,12.10
2020,06,02,09,30,12.10
2020,06,02,09,31,12.10
2020,06,02,09,32,12.10
2020,06,02,09,33,12.10
2020,06,02,09,34,12.10
2020,06,02,09,35,12.10
2020,06,02,09,36,12.10
2020,06,02,09,37,12.10
2020,06,02,09,38,12.10
2020,06,02,09,39,12.10
2020,06,02,09,40,12.10
2020,06,02,09,41,12.10
2020,06,02,09,42,12.00
2020,06,02,09,43,12.00
2020,06,02,09,44,12.00
2020,06,02,09,45,12.00
2020,06,02,09,46,12.00
2020,06,02,09,47,12.00
2020,06,02,09,48,12.00
2020,06,02,09,49,12.00
2020,06,02,09,50,12.00
2020,06,02,09,51,12.00
2020,06,02,09,52,12.00
2020,06,02,09,53,12.10
2020,06,02,09,54,12.00
2020,06,02,09,55,12.00
2020,06,02,09,56,12.00
2020,06,02,09,57,12.00
2020,06,02,09,58,11.90
2020,06,02,09,59,11.90
2020,06,02,10,00,11.90
2020,06,02,10,01,11.90
2020,06,02,10,02,11.90
2020,06,02,10,03,11.90
2020,06,02,10,04,12.00
2020,06,02,10,05,12.00
2020,06,02,10,06,12.00
2020,06,02,10,07,12.00
2020,06,02,10,08,12.00
2020,06,02,10,09,12.00
2020,06,02,10,10,12.00
2020,06,02,10,11,12.00
2020,06,02,10,12,12.00
2020,06,02,10,13,12.00
2020,06,02,10,14,12.00
2020,06,02,10,15,12.00
2020,06,02,10,16,12.00
2020,06,02,10,17,12.00
2020,06,02,10,18,11.90
2020,06,02,10,19,11.90
2020,06,02,10,20,11.90
2020,06,02,10,21,11.90
2020,06,02,10,22,11.80
2020,06,02,10,23,11.80
2020,06,02,10,24,11.70
2020,06,02,10,25,11.70
2020,06,02,10,26,11.70
2020,06,02,10,27,11.70
2020,06,02,10,28,11.60
2020,06,02,10,29,11.60
2020,06,02,10,30,11.60
2020,06,02,10,31,11.60
2020,06,02,10,32,11.60
2020,06,02,10,33,11.60
2020,06,02,10,34,11.60
2020,06,02,10,35,11.60
2020,06,02,10,36,11.70
2020,06,02,10,37,11.70
2020,06,02,10,38,11.70
2020,06,02,10,39,11.70
2020,06,02,10,40,11.80
2020,06,02,10,41,11.80
2020,06,02,10,42,11.70
2020,06,02,10,43,11.70
2020,06,02,10,44,11.80
2020,06,02,10,45,11.80
2020,06,02,10,46,11.80
2020,06,02,10,47,11.80
2020,06,02,10,48,11.90
2020,06,02,10,49,11.90
2020,06,02,10,50,11.80
2020,06,02,10,51,11.80
2020,06,02,10,52,11.80
2020,06,02,10,53,11.80
2020,06,02,10,54,11.80
2020,06,02,10,55,11.80
2020,06,02,10,56,11.80
2020,06,02,10,57,11.80
2020,06,02,10,58,11.80
2020,06,02,10,59,11.90
2020,06,02,11,00,11.90
2020,06,02,11,01,12.00
2020,06,02,11,02,12.10
2020,06,02,11,03,12.00
2020,06,02,11,04,11.90
2020,06,02,11,05,12.00
2020,06,02,11,06,12.00
2020,06,02,11,07,12.10
2020,06,02,11,08,12.10
2020,06,02,11,09,12.10
2020,06,02,11,10,12.10
2020,06,02,11,11,12.10
2020,06,02,11,12,12.10
2020,06,02,11,13,12.10
2020,06,02,11,14,12.10
2020,06,02,11,15,12.10
2020,06,02,11,16,12.00
2020,06,02,11,17,12.00
2020,06,02,11,18,11.90
2020,06,02,11,19,12.00
2020,06,02,11,20,12.00
2020,06,02,11,21,12.00
2020,06,02,11,22,12.00
2020,06,02,11,23,12.00
2020,06,02,11,24,12.00
2020,06,02,11,25,12.00
2020,06,02,11,26,12.00
2020,06,02,11,27,12.00
2020,06,02,11,28,12.00
2020,06,02,11,29,12.00
2020,06,02,11,30,12.00
2020,06,02,11,31,12.00
2020,06,02,11,32,12.00
2020,06,02,11,33,11.90
2020,06,02,11,34,11.90
2020,06,02,11,35,11.90
2020,06,02,11,36,11.90
2020,06,02,11,37,11.90
2020,06,02,11,38,11.90
2020,06,02,11,39,11.90
2020,06,02,11,40,11.90
2020,06,02,11,41,11.90
2020,06,02,11,42,11.80
2020,06,02,11,43,11.80
2020,06,02,11,44,11.80
2020,06,02,11,45,11.90
2020,06,02,11,46,11.90
2020,06,02,11,47,11.90
2020,06,02,11,48,11.80
2020,06,02,11,49,11.70
2020,06,02,11,50,11.60
2020,06,02,11,51,11.40
2020,06,02,11,52,11.30
2020,06,02,11,53,11.30
2020,06,02,11,54,11.30
2020,06,02,11,55,11.30
2020,06,02,11,56,11.30
2020,06,02,11,57,11.30
2020,06,02,11,58,11.30
2020,06,02,11,59,11.20
2020,06,02,12,00,11.20
2020,06,02,12,01,11.10
2020,06,02,12,02,11.10
2020,06,02,12,03,11.10
2020,06,02,12,04,11.10
2020,06,02,12,05,11.00
2020,06,02,12,06,10.90
2020,06,02,12,07,10.90
2020,06,02,12,08,10.90
2020,06,02,12,09,10.80
2020,06,02,12,10,10.80
2020,06,02,12,11,10.80
2020,06,02,12,12,10.80
2020,06,02,12,13,10.70
2020,06,02,12,14,10.70
2020,06,02,12,15,10.70
2020,06,02,12,16,10.70
2020,06,02,12,17,10.70
2020,06,02,12,18,10.70
2020,06,02,12,19,10.70
2020,06,02,12,20,10.70
2020,06,02,12,21,10.70
2020,06,02,12,22,10.70
2020,06,02,12,23,10.70
2020,06,02,12,24,10.70
2020,06,02,12,25,10.70
2020,06,02,12,26,10.70
2020,06,02,12,27,10.70
2020,06,02,12,28,10.70
2020,06,02,12,29,10.70
2020,06,02,12,30,10.70
2020,06,02,12,31,10.70
2020,06,02,12,32,10.80
2020,06,02,12,33,10.80
2020,06,02,12,34,10.80
2020,06,02,12,35,10.70
2020,06,02,12,36,10.70
2020,06,02,12,37,10.70
2020,06,02,12,38,10.60
2020,06,02,12,39,10.60
2020,06,02,12,40,10.60
2020,06,02,12,41,10.50
2020,06,02,12,42,10.50
2020,06,02,12,43,10.50
2020,06,02,12,44,10.40
2020,06,02,12,45,10.40
2020,06,02,12,46,10.40
2020,06,02,12,47,10.40
2020,06,02,12,48,10.40
2020,06,02,12,49,10.40
2020,06,02,12,50,10.40
2020,06,02,12,51,10.40
2020,06,02,12,52,10.40
2020,06,02,12,53,10.40
2020,06,02,12,54,10.40
2020,06,02,12,55,10.50
2020,06,02,12,56,10.60
2020,06,02,12,57,10.60
2020,06,02,12,58,10.60
2020,06,02,12,59,10.60
2020,06,02,13,00,10.60
2020,06,02,13,01,10.60
2020,06,02,13,02,10.70
2020,06,02,13,03,10.60
2020,06,02,13,04,10.60
2020,06,02,13,05,10.60
2020,06,02,13,06,10.50
2020,06,02,13,07,10.40
2020,06,02,13,08,10.40
2020,06,02,13,09,10.50
2020,06,02,13,10,10.50
2020,06,02,13,11,10.50
2020,06,02,13,12,10.60
2020,06,02,13,13,10.70
2020,06,02,13,14,10.70
2020,06,02,13,15,10.70
2020,06,02,13,16,10.70
2020,06,02,13,17,10.70
2020,06,02,13,18,10.70
2020,06,02,13,19,10.80
2020,06,02,13,20,10.80
2020,06,02,13,21,10.90
2020,06,02,13,22,11.00
2020,06,02,13,23,11.10
2020,06,02,13,24,11.20
2020,06,02,13,25,11.30
2020,06,02,13,26,11.30
2020,06,02,13,27,11.30
2020,06,02,13,28,11.40
2020,06,02,13,29,11.50
2020,06,02,13,30,11.50
2020,06,02,13,31,11.60
2020,06,02,13,32,11.60
2020,06,02,13,33,11.50
2020,06,02,13,34,11.50
2020,06,02,13,35,11.50
2020,06,02,13,36,11.60
2020,06,02,13,37,11.60
2020,06,02,13,38,11.60
2020,06,02,13,39,11.60
2020,06,02,13,40,11.60
2020,06,02,13,41,11.50
2020,06,02,13,42,11.40
2020,06,02,13,43,11.30
2020,06,02,13,44,11.30
2020,06,02,13,45,11.40
2020,06,02,13,46,11.40
2020,06,02,13,47,11.50
2020,06,02,13,48,11.50
2020,06,02,13,49,11.50
2020,06,02,13,50,11.60
2020,06,02,13,51,11.60
2020,06,02,13,52,11.60
2020,06,02,13,53,11.60
2020,06,02,13,54,11.60
2020,06,02,13,55,11.60
2020,06,02,13,56,11.60
2020,06,02,13,57,11.50
2020,06,02,13,58,11.50
2020,06,02,13,59,11.40
2020,06,02,14,00,11.40
2020,06,02,14,01,11.40
2020,06,02,14,02,11.40
2020,06,02,14,03,11.30
2020,06,02,14,04,11.40
2020,06,02,14,05,11.40
2020,06,02,14,06,11.40
2020,06,02,14,07,11.40
2020,06,02,14,08,11.40
2020,06,02,14,09,11.30
2020,06,02,14,10,11.30
2020,06,02,14,11,11.30
2020,06,02,14,12,11.30
2020,06,02,14,13,11.40
2020,06,02,14,14,11.40
2020,06,02,14,15,11.40
2020,06,02,14,16,11.40
2020,06,02,14,17,11.40
2020,06,02,14,18,11.40
2020,06,02,14,19,11.40
2020,06,02,14,20,11.40
2020,06,02,14,21,11.40
2020,06,02,14,22,11.40
2020,06,02,14,23,11.40
2020,06,02,14,24,11.40
2020,06,02,14,25,11.40
2020,06,02,14,26,11.30
2020,06,02,14,27,11.30
2020,06,02,14,28,11.30
2020,06,02,14,29,11.30
2020,06,02,14,30,11.30
2020,06,02,14,31,11.40
2020,06,02,14,32,11.40
2020,06,02,14,33,11.40
2020,06,02,14,34,11.40
2020,06,02,14,35,11.30
2020,06,02,14,36,11.30
2020,06,02,14,37,11.30
2020,06,02,14,38,11.30
2020,06,02,14,39,11.30
2020,06,02,14,40,11.30
2020,06,02,14,41,11.30
2020,06,02,14,42,11.30
2020,06,02,14,43,11.30
2020,06,02,14,44,11.30
2020,06,02,14,45,11.30
2020,06,02,14,46,11.30
2020,06,02,14,47,11.30
2020,06,02,14,48,11.30
2020,06,02,14,49,11.30
2020,06,02,14,50,11.20
2020,06,02,14,51,11.20
2020,06,02,14,52,11.10
2020,06,02,14,53,11.10
2020,06,02,14,54,11.10
2020,06,02,14,55,11.10
2020,06,02,14,56,11.10
2020,06,02,14,57,11.10
2020,06,02,14,58,11.10
2020,06,02,14,59,11.10
2020,06,02,15,00,11.00
2020,06,02,15,01,11.00
2020,06,02,15,02,11.00
2020,06,02,15,03,11.10
2020,06,02,15,04,11.10
2020,06,02,15,05,11.10
2020,06,02,15,06,11.10
2020,06,02,15,07,11.10
2020,06,02,15,08,11.10
2020,06,02,15,09,11.10
2020,06,02,15,10,11.10
2020,06,02,15,11,11.10
2020,06,02,15,12,11.20
2020,06,02,15,13,11.10
2020,06,02,15,14,11.10
2020,06,02,15,15,11.00
2020,06,02,15,16,10.90
2020,06,02,15,17,10.90
2020,06,02,15,18,10.80
2020,06,02,15,19,10.80
2020,06,02,15,20,10.70
2020,06,02,15,21,10.70
2020,06,02,15,22,10.70
2020,06,02,15,23,10.70
2020,06,02,15,24,10.70
2020,06,02,15,25,10.70
2020,06,02,15,26,10.60
2020,06,02,15,27,10.60
2020,06,02,15,28,10.60
2020,06,02,15,29,10.60
2020,06,02,15,30,10.60
2020,06,02,15,31,10.60
2020,06,02,15,32,10.60
2020,06,02,15,33,10.70
2020,06,02,15,34,10.70
2020,06,02,15,35,10.70
2020,06,02,15,36,10.70
2020,06,02,15,37,10.80
2020,06,02,15,38,10.80
2020,06,02,15,39,10.90
2020,06,02,15,40,10.90
2020,06,02,15,41,10.90
2020,06,02,15,42,11.00
2020,06,02,15,43,11.10
2020,06,02,15,44,11.10
2020,06,02,15,45,11.00
2020,06,02,15,46,11.00
2020,06,02,15,47,11.00
2020,06,02,15,48,11.10
2020,06,02,15,49,11.10
2020,06,02,15,50,11.10
2020,06,02,15,51,11.10
2020,06,02,15,52,11.10
2020,06,02,15,53,11.10
2020,06,02,15,54,11.10
2020,06,02,15,55,11.00
2020,06,02,15,56,10.90
2020,06,02,15,57,10.90
2020,06,02,15,58,10.80
2020,06,02,15,59,10.80
2020,06,02,16,00,10.90
2020,06,02,16,01,10.90
2020,06,02,16,02,11.00
2020,06,02,16,03,11.00
2020,06,02,16,04,11.00
2020,06,02,16,05,11.10
2020,06,02,16,06,11.10
2020,06,02,16,07,11.10
2020,06,02,16,08,11.20
2020,06,02,16,09,11.20
2020,06,02,16,10,11.10
2020,06,02,16,11,11.10
2020,06,02,16,12,11.20
2020,06,02,16,13,11.20
2020,06,02,16,14,11.20
2020,06,02,16,15,11.20
2020,06,02,16,16,11.30
2020,06,02,16,17,11.30
2020,06,02,16,18,11.30
2020,06,02,16,19,11.40
2020,06,02,16,20,11.40
2020,06,02,16,21,11.50
2020,06,02,16,22,11.50
2020,06,02,16,23,11.50
2020,06,02,16,24,11.50
2020,06,02,16,25,11.50
2020,06,02,16,26,11.50
2020,06,02,16,27,11.50
2020,06,02,16,28,11.50
2020,06,02,16,29,11.50
2020,06,02,16,30,11.50
2020,06,02,16,31,11.50
2020,06,02,16,32,11.50
2020,06,02,16,33,11.60
2020,06,02,16,34,11.60
2020,06,02,16,35,11.70
2020,06,02,16,36,11.70
2020,06,02,16,37,11.80
2020,06,02,16,38,11.80
2020,06,02,16,39,11.90
2020,06,02,16,40,12.00
2020,06,02,16,41,12.10
2020,06,02,16,42,12.10
2020,06,02,16,43,12.10
2020,06,02,16,44,12.10
2020,06,02,16,45,12.10
2020,06,02,16,46,12.20
2020,06,02,16,47,12.20
2020,06,02,16,48,12.20
2020,06,02,16,49,12.20
2020,06,02,16,50,12.20
2020,06,02,16,51,12.20
2020,06,02,16,52,12.20
2020,06,02,16,53,12.20
2020,06,02,16,54,12.20
2020,06,02,16,55,12.20
2020,06,02,16,56,12.20
2020,06,02,16,57,12.20
2020,06,02,16,58,12.10
2020,06,02,16,59,12.10
2020,06,02,17,00,12.10
2020,06,02,17,01,12.10
2020,06,02,17,02,12.20
2020,06,02,17,03,12.20
2020,06,02,17,04,12.30
2020,06,02,17,05,12.40
2020,06,02,17,06,12.40
2020,06,02,17,07,12.50
2020,06,02,17,08,12.50
2020,06,02,17,09,12.50
2020,06,02,17,10,12.50
2020,06,02,17,11,12.50
2020,06,02,17,12,12.40
2020,06,02,17,13,12.40
2020,06,02,17,14,12.30
2020,06,02,17,15,12.30
2020,06,02,17,16,12.30
2020,06,02,17,17,12.30
2020,06,02,17,18,12.30
2020,06,02,17,19,12.20
2020,06,02,17,20,12.20
2020,06,02,17,21,12.10
2020,06,02,17,22,12.10
2020,06,02,17,23,12.10
2020,06,02,17,24,12.10
2020,06,02,17,25,12.00
2020,06,02,17,26,12.00
2020,06,02,17,27,12.00
2020,06,02,17,28,12.00